Location: Heilbronn
(49.1548°N, 9.2780°E)
Time: 17:03:48
(UTC+01:00)

ISS - Pass Details

Date: 27 March 2017
Orbit: 399 x 409 km, 51.6° (Epoch: 25 March)

Event Time Altitude Azimuth Distance (km) Brightness Sun altitude
Rises 21:48:19 0° 224° (SW) 2,305 0.2 -19.7°
Reaches altitude 10° 21:50:28 10° 216° (SW) 1,451 -1.0 -20.0°
Enters shadow 21:51:05 14° 211° (SSW) 1,222 -1.4 -20.1°
